EHI
0 0 0 0 0 0 0 0 0 0 0 0 0 0 0 0 0 0 0 0 0 0 0 0 0 0 0 0 0 0 0 0 0 0 0 0 0 0
0 0 0 0 0 0 0 0 0 0 0 0 0 0 0 0 0 0 0 0 0 0 0 0 0 0 0 0 0 0 0 0 0 0 0 0 0 0
0 0 0 0 0 0 0 0 0 0 0 0 0 0 0 0 0 0 0 0 0 0 0 0 0 0 0 0 0 0 0 0 0 0 0 0 0 0
0 0 0 0 0 0 0 0 0 0 0 0 0 0 0 0 0 0 0 0 0 0 0 0 0 0 0 0 0 0 0 0 0 0 0 0 0 0
0 0 0 0 0 0 0 0 0 0 0 0 0 0 0 0 0 0 0 0 0 0 0 0 0 0 0 0 0 0 0 0 0 0 0 0 0 0
0 0 0 0 0 0 0 0 0 0 0 0 0 0 0 0 0 0 0 0 0 0 0 0 0 0 0 0 0 0 0 0 0 0 0 0 0 0
0 0 0 0 0 0 0 0 0 0 0 0 0 0 0 0 0 0 0 0 0 0 0 0 0 0 0 0 0 0 0 0 0 0 0 0 0 0
0 0 0 0 0 0 0 0 0 0 0 0 0 0 0 0 0 0 0 0 0 0 0 0 0 0 0 0 0 0 0 0 0 0 0 0 0 0
0 0 0 0 0 0 0 0 0 0 0 0 0 0 0 0 0 0 0 0 0 0 0 0 0 0 0 0 0 0 0 0 0 0 0 0 0 0
0 0 0 0 0 0 0 0 0 0 0 0 0 0 0 0 0 0 0 0 0 0 0 0 0 0 0 0 0 0 0 0 0 0 0 0 0 0
0 0 0 0 0 0 0 0 0 0 0 0 0 0 0 0 0 0 0 0 0 0 0 0 0 0 0 0 0 0 0 0 0 0 0 0 0 0
0 0 0 0 0 0 0 0 0 0 0 0 0 0 0 0 0 0 0 0 0 0 0 0 0 0 0 0 0 0 0 0 0 0 0 0 0 0
0 0 0 0 0 0 0 0 0 0 0 0 0 0 0 0 0 0 0 0 0 0 0 0 0 0 0 0 0 0 0 0 0 0 0 0 0 0
0 0 0 0 0 0 0 0 0 0 0 0 0 0 0 0 0 0 0 0 0 0 0 0 0 0 0 0 0 0 0 0 0 0 0 0 0 0
0 0 0 0 0 0 0 0 0 0 0 0 0 0 0 0 0 0 0 0 0 0 0 0 0 0 0 0 0 0 0 0 0 0 0 0 0 0
0 0 0 0 0 0 0 0 0 0 0 0 0 0 0 0 0 0 0 0 0 0 0 0 0 0 0 0 0 0 0 0 0 0 0 0 0 0
0 0 0 0 0 0 0 0 0 0 0 0 0 0 0 0 0 0 0 0 0 0 0 0 0 0 0 0 0 0 0 0 0 0 0 0 0 0
0 0 0 0 0 0 0 0 0 0 0 0 0 0 0 0 0 0 0 0 0 0 0 0 0 0 0 0 0 0 0 0 0 0 0 0 0 0
0 0 0 0 0 0 0 0 0 0 0 0 0 0 0 0 0 0 0 0 0 0 0 0 0 0 0 0 0 0 0 0 0 0 0 0 0 0
0 0 0 0 0 0 0 0 0 0 0 0 0 0 0 0 0 0 0 0 0 0 0 0 0 0 0 0 0 0 0 0 0 0 0 0 0 0
0 0 0 0 0 0 0 0 0 0 0 0 0 0 0 0 0 0 0 0 0 0 0 0 0 0 0 0 0 0 0 0 0 0 0 0 0 0
0 0 0 0 0 0 0 0 0 0 0 0 0 0 0 0 0 0 0 0 0 0 0 0 0 0 0 0 0 0 0 0 0 0 0 0 0 0
0 0 0 0 0 0 0 0 0 0 0 0 0 0 0 0 0 0 0 0 0 0 0 0 0 0 0 0 0 0 0 0 0 0 0 0 0 0
Wind_Speed
6 7 5 4 4 3 3 3 3 3 4 4 3 4 3 3 3 4 4 4 5 6 6 6 6 7 7 8 8 9 9 9 10 10 11 11 12 12
5 7 6 4 4 4 4 3 3 4 3 3 3 3 3 3 4 5 4 4 6 6 6 7 7 7 8 8 9 9 9 10 11 11 12 12 13 13
7 7 7 6 5 4 4 4 4 3 4 2 2 3 4 5 4 4 4 4 4 6 7 8 8 8 8 9 9 10 10 10 11 11 12 12 13 13
8 8 8 6 6 5 4 5 4 4 4 4 3 3 4 5 4 4 4 4 4 5 7 8 8 9 9 9 10 10 10 10 10 11 11 12 12 13
9 9 8 8 7 6 6 5 4 3 3 4 3 2 2 3 4 4 4 4 4 4 7 7 8 8 9 10 10 10 10 10 10 10 10 11 12 13
8 8 8 8 8 7 6 7 5 5 4 4 3 3 2 3 3 4 3 3 4 4 5 5 7 8 8 9 9 9 9 9 10 10 10 10 11 12
8 8 8 8 8 7 6 7 6 5 4 4 3 3 3 3 4 4 4 3 4 4 4 4 5 5 5 6 7 7 9 9 9 10 10 11 11 12
8 8 7 8 8 9 8 8 8 7 6 5 4 5 5 5 4 4 3 3 4 3 4 5 4 5 4 4 5 7 8 9 9 9 10 11 11 12
8 7 5 6 8 7 8 8 8 9 8 7 7 7 6 5 5 5 5 5 5 3 3 5 4 5 5 4 7 8 9 9 9 10 11 11 12 13
8 8 7 7 7 7 6 7 7 7 7 6 6 6 5 4 5 5 5 4 4 3 4 4 4 5 5 5 7 8 9 10 10 11 11 12 12 12
7 7 8 7 8 8 7 6 6 5 4 5 5 4 4 4 4 3 3 3 4 3 3 3 3 4 5 5 5 7 9 10 11 11 12 13 12 12
5 6 7 7 8 9 7 7 7 5 3 3 3 3 4 4 6 5 4 4 3 3 2 3 3 2 4 3 3 4 5 8 10 11 12 12 12 9
4 4 4 7 8 8 7 6 6 4 3 3 2 2 2 2 3 3 3 3 4 3 2 2 3 3 3 4 4 4 4 5 6 7 9 11 12 10
4 4 4 6 6 6 5 4 4 3 2 2 2 2 2 2 2 2 3 3 3 4 4 3 3 3 4 5 5 4 4 5 5 5 5 8 10 12
3 3 4 5 4 4 4 5 4 3 3 3 3 3 2 2 1 1 1 1 2 3 3 4 4 4 4 5 5 5 5 5 5 5 5 6 6 6
2 3 4 4 3 3 4 4 3 3 3 3 3 2 1 1 2 2 2 2 2 2 2 3 4 5 5 6 6 6 6 5 4 5 6 6 6 6
3 2 3 3 3 3 3 2 2 2 2 2 2 2 2 2 2 1 2 2 3 3 3 2 3 4 6 6 6 6 6 5 5 5 6 7 7 6
4 3 3 3 3 3 3 3 2 3 2 2 2 2 2 3 2 2 2 3 3 3 3 3 3 3 4 5 7 7 5 5 5 5 5 6 7 6
4 3 3 3 3 3 2 2 2 2 2 2 2 2 2 2 2 3 3 3 3 3 3 3 3 3 5 6 3 5 5 5 5 5 5 6 7 7
3 3 3 2 2 2 2 2 2 2 2 2 3 3 3 3 3 3 3 4 4 4 4 3 4 4 5 5 5 5 6 6 5 6 6 6 6 8
2 2 2 2 2 2 2 2 3 3 3 3 3 3 3 3 3 3 4 4 4 4 5 5 4 5 4 4 5 5 4 5 6 6 6 5 6 6
2 2 2 2 2 2 2 2 3 3 3 3 3 3 3 3 4 4 4 4 4 4 5 4 3 3 3 4 6 6 6 5 6 8 9 8 5 5
2 2 2 2 2 2 3 3 3 3 3 3 3 3 3 3 3 4 4 4 4 4 4 4 4 3 4 5 6 6 7 6 5 5 5 6 9 11
Wind_Direction
210 211 213 209 206 216 214 214 217 229 228 213 208 210 210 217 204 231 244 252 271 282 295 289 288 288 283 281 280 280 283 284 284 284 286 288 287 287
207 208 213 210 207 210 210 221 233 239 240 217 218 211 210 221 217 232 242 254 256 268 283 283 276 276 274 275 277 276 278 280 281 282 283 285 285 285
208 209 211 210 207 209 211 215 223 229 238 240 228 215 216 220 220 235 241 246 249 258 270 276 268 266 269 272 274 275 276 278 279 281 283 283 286 285
209 209 211 207 210 210 210 215 220 223 230 237 222 221 229 225 230 237 242 248 256 261 264 271 267 264 266 268 271 274 274 276 276 279 281 283 285 286
210 209 208 205 208 211 213 216 220 222 231 230 227 222 232 226 236 243 247 252 258 260 256 260 265 267 266 264 265 269 271 272 273 276 280 284 286 284
213 211 210 209 211 210 213 217 214 214 221 222 226 228 226 227 235 240 247 249 258 262 254 261 268 267 265 264 263 265 268 271 274 277 280 283 286 286
213 214 214 216 221 216 214 213 209 211 214 217 221 230 224 222 232 235 244 255 263 253 261 265 268 260 256 258 260 264 269 271 274 276 279 282 286 288
211 213 213 212 215 218 220 219 216 213 212 218 225 227 232 235 235 236 239 247 259 239 264 271 271 270 266 263 270 275 274 275 276 278 280 282 286 287
212 209 208 212 211 216 215 217 222 226 224 225 229 232 232 229 228 234 235 247 260 260 258 267 268 272 276 273 271 271 274 277 281 284 284 285 286 286
214 213 210 209 208 212 212 217 223 225 228 230 234 237 238 231 228 238 247 260 279 264 241 256 268 275 281 275 264 263 269 274 280 284 286 287 289 289
217 216 214 212 208 206 209 214 222 228 233 236 248 249 243 233 232 231 224 236 262 260 237 247 265 285 282 271 264 266 272 274 279 283 286 287 289 290
214 216 216 216 209 204 210 211 217 221 212 208 225 231 230 216 217 226 223 231 254 257 220 238 262 282 280 266 275 275 272 273 279 282 285 285 287 285
208 212 210 203 210 210 216 218 215 211 208 212 222 228 230 223 227 233 233 231 238 250 226 225 257 261 262 281 280 276 278 284 285 284 284 286 286 283
210 208 198 191 202 209 215 209 198 198 200 204 213 221 227 233 245 253 255 259 262 264 253 234 244 253 268 278 278 278 283 284 283 284 288 292 286 280
211 198 190 184 192 199 198 196 199 201 200 208 215 227 238 239 243 263 263 274 289 278 256 248 246 256 259 266 276 282 288 285 276 282 288 287 285 284
200 178 177 180 193 200 194 199 211 214 213 218 222 227 222 220 233 246 253 256 267 272 261 252 251 254 263 267 269 274 277 274 277 281 286 285 283 278
185 187 189 189 194 199 205 206 208 206 211 218 217 217 220 231 244 252 259 252 256 271 284 285 278 272 266 264 268 267 272 278 280 285 287 286 281 278
183 196 198 199 202 205 207 208 210 213 214 212 216 216 222 227 238 245 248 250 262 268 274 283 292 292 278 257 236 257 269 280 287 285 283 285 286 286
195 199 202 205 205 204 209 215 221 223 216 213 218 222 224 227 236 245 248 255 266 270 273 275 274 278 282 286 265 225 264 285 288 285 282 282 287 291
201 200 203 206 207 207 211 217 219 217 214 218 221 223 223 227 237 244 247 255 265 272 273 269 264 266 269 281 286 280 260 267 278 283 289 289 287 289
200 204 206 208 212 215 218 221 221 221 221 223 226 227 224 229 238 245 251 255 261 264 268 271 275 281 277 270 274 278 280 263 270 275 286 289 292 292
206 210 213 215 216 222 223 220 221 222 220 224 227 227 227 233 242 247 249 252 258 265 274 281 283 276 265 266 279 288 295 299 289 279 272 265 272 279
218 220 221 219 220 222 222 223 225 227 227 229 228 229 231 238 245 246 249 251 258 265 272 280 281 275 274 276 282 287 292 299 302 301 293 285 278 275